Location: Sabalos
(43.2860°N, 0.1414°E)
Time: 08:33:27
(UTC+00:00)

Geosat - Pass Details

Date: 05 July 2020
Orbit: 763 x 766 km, 108.0° (Epoch: 14 August)

Event Time Altitude Azimuth Distance (km) Brightness Sun altitude
Exits shadow 20:14:49 - 151° (SSE) 2,786 6.3 -5.6°
Reaches altitude 10° 20:16:01 10° 151° (SSE) 2,293 5.9 -5.8°
Maximum altitude 20:21:02 89° 73° (ENE) 771 4.1 -6.5°
Drops below altitude 10° 20:26:05 10° 333° (NNW) 2,310 7.8 -7.2°
Sets 20:28:22 0° 334° (NNW) 3,241 8.7 -7.5°
